Regional Weather Roundup
Issued by NWS Midland/Odessa, TX

Skip options and go directly to product.
Home | Oldest Version | Previous Version | Current Version | All | Graphics & Text | Save Text | Print | Product List | Glossary On

Skip product version selection by date and time.   
132
ASUS44 KMAF 040401
RWRMAF
MIDLAND AREA WEATHER ROUNDUP
NATIONAL WEATHER SERVICE MIDLAND TX
1100 PM CDT TUE MAY 03 2016

...IN SOUTHWEST TEXAS AND SOUTHEAST NEW MEXICO...

CITY           SKY/WX    TMP DP  RH WIND       PRES   REMARKS
ALPINE         NOT AVBL
ANDREWS        NOT AVBL
ARTESIA        CLEAR     63  34  34 NE3       30.17R
BIG SPRING     NOT AVBL
CARLSBAD       CLEAR     66  35  31 NE7       30.14R
DRYDEN           N/A     67  50  54 E5        30.07R
FORT STOCKTON  CLEAR     66  39  37 S7        30.10R
GUAD PASS      NOT AVBL
HOBBS            N/A     59  43  55 E8        30.19R
MARFA          CLEAR     60  39  45 E9        30.19R
MIDLAND AIRPK  PTCLDY    64  49  56 E8        30.16R
MIDLAND INTL   MOCLDY    65  47  52 E13       30.16R
ODESSA         MOCLDY    64  46  52 E12       30.16R
PECOS          CLEAR     71  36  27 N7        30.09R
PRESIDIO       FAIR      75  42  30 MISG      30.02R
SEMINOLE       CLEAR     56  48  73 CALM      30.18R
SNYDER           N/A     55  53  90 CALM      30.14R
WINK           CLEAR     68  43  40 E17G23    30.11R
$$
...OTHER STATIONS IN TEXAS...

CITY           SKY/WX    TMP DP  RH WIND       PRES   REMARKS
ABILENE        MOCLDY    56  54  93 S6        30.12R
AMARILLO       CLEAR     53  36  52 N5        30.17R
AUSTIN         CLEAR     57  52  83 CALM      30.09R
BROWNSVILLE    CLOUDY    70  62  76 N3        30.04R
CORPUS CHRISTI MOCLDY    72  57  59 CALM      30.04R
DALLAS FTW     CLOUDY    67  46  47 W5        30.05R
DEL RIO        CLEAR     69  57  65 E6        30.04R
EL PASO        PTCLDY    70  26  19 E9        30.11R
HOUSTON INT    CLEAR     63  51  65 N6        30.05R
LUBBOCK        CLEAR     55  46  71 NW5       30.16R
SAN ANGELO     CLEAR     61  53  75 NE8       30.12R
SAN ANTONIO    PTCLDY    64  49  57 NE5       30.09R
WACO           PTCLDY    59  52  77 CALM      30.09R
WICHITA FALLS  NOT AVBL
$$
...OTHER LOCATIONS IN NEW MEXICO...

CITY           SKY/WX    TMP DP  RH WIND       PRES   REMARKS
ALAMAGORDO     CLEAR     68  32  26 E10       30.14R
ALBUQUERQUE    CLEAR     63  30  28 E13       30.22R
CANNON AFB     CLEAR     51  29  44 NE7       30.21R
CLOVIS         CLEAR     48  32  53 NE8       30.22R
HOLLOMAN AFB   CLEAR     65  32  28 NE9       30.13R
ROSWELL        CLEAR     62  31  31 NE5       30.16R
RUIDOSO          N/A     50  30  46 SE9       30.33R
SANTA FE       CLEAR     53  32  44 E5        30.28R
TRUTH OR CONSE CLEAR     63  26  24 N5        30.16R
TUCUMCARI      CLEAR     50  32  50 NE8       30.19R
$$

USA.gov is the U.S. government's official web portal to all federal, state and local government web resources and services.